Regional Weather Roundup
Issued by NWS

Home | Current Version | Previous Version | Graphics & Text | Print | Product List | Glossary On
Versions: 1 2 3 4 5 6 7 8 9 10 11 12 13 14 15 16 17 18 19 20 21 22 23 24 25 26 27 28 29 30 31 32 33 34 35 36 37 38 39 40 41 42 43 44 45 46 47 48 49 50
000
ASUS43 KMPX 180610
RWRMN
WEATHER ROUNDUP FOR MINNESOTA
NATIONAL WEATHER SERVICE TWIN CITIES/CHANHASSEN MN
100 AM CDT SAT APR 18 2015


NOTE: "FAIR" INDICATES FEW OR NO CLOUDS BELOW 12,000 FEET WITH NO
SIGNIFICANT WEATHER AND/OR OBSTRUCTIONS TO VISIBILITY. N/A MEANS
CURRENT SKY AND/OR WEATHER CONDITIONS ARE NOT AVAILABLE.

MNZ060>063-068>070-180700-
   Twin Cities Metro

CITY           SKY/WX    TMP DP  RH WIND       PRES   REMARKS
TWIN CITIES    FAIR      57  31  37 SW3       30.04S
6HR MIN TEMP:  55; 6HR MAX TEMP:  72;

ST PAUL        FAIR      51  41  68 CALM      30.05R
CRYSTAL        FAIR      48  34  58 CALM      30.03S
BLAINE         FAIR      48  36  61 CALM      30.04S
LAKEVILLE      FAIR      48  37  66 W3        30.04S
EDEN PRAIRIE   FAIR      56  29  35 CALM      30.04R
6HR MIN TEMP:  54; 6HR MAX TEMP:  72;

SOUTH ST PAUL  FAIR      52  35  52 CALM      30.04R
LAKE ELMO      FAIR      45  34  65 CALM      30.05R
$$
MNZ001>005-007-008-013>017-022>024-027-028-180700-
   Northwest Minnesota

CITY           SKY/WX    TMP DP  RH WIND       PRES   REMARKS
BEMIDJI        FAIR      44  28  53 NE8       30.13S
HALLOCK        FAIR      41  28  60 NE8       30.16F
ROSEAU         FAIR      37  30  75 E7        30.20R
WARROAD        FAIR      37  32  81 NE6       30.20S
THIEF RVR FALL FAIR      45  28  53 NE10      30.16S
CROOKSTON      FAIR      43  28  56 NE7       30.15S
FOSSTON        FAIR      41  21  45 NE7       30.14R
DETROIT LAKES  FAIR      52  25  35 E10       30.11S
MOORHEAD       FAIR      46  21  36 N12       30.11S
PARK RAPIDS    FAIR      51  23  33 NE7       30.10S
MAHNOMEN       FAIR      43  25  49 NE8       30.11F
$$
MNZ006-009>011-018-025>026-180700-
   North Central Minnesota

CITY           SKY/WX    TMP DP  RH WIND       PRES   REMARKS
BAUDETTE       FAIR      39  30  70 NE6       30.20R
FLAG ISLAND    FAIR      39  30  70 CALM      30.19S
INTL FALLS     FAIR      39  30  70 E3        30.19R
6HR MIN TEMP:  39; 6HR MAX TEMP:  62;

WASKISH        FAIR      41  30  65 NE5       30.17R
BIG FORK       FAIR      45  28  53 NE7       30.15R
LONGVILLE      FAIR      48  23  37 N6        30.11R
GRAND RAPIDS   FAIR      48  27  43 N6        30.13R
ORR            FAIR      39  28  65 CALM      30.16R
COOK           FAIR      43  30  61 N5        30.16R
WALKER         FAIR      47  24  41 NE5       30.12S
$$
MNZ012-019>021-037-180700-
   Northeast Minnesota

CITY           SKY/WX    TMP DP  RH WIND       PRES   REMARKS
DULUTH         FAIR      52  27  38 N14G24    30.08R
6HR MIN TEMP:  52; 6HR MAX TEMP:  70;

ELY            FAIR      43  30  61 NE3       30.16R
HIBBING        FAIR      47  28  47 NE9       30.12R
EVELETH        FAIR      45  30  57 NE7       30.13R
DULUTH HARBOR  FAIR      52  32  46 NE16      30.10R
TWO HARBORS    FAIR      54  34  47 N7        30.09R
SILVER BAY     FAIR      48  30  49 N6        30.10R
GRAND MARAIS     N/A     46  30  53 CALM      30.14R
G MARAIS ARPRT FAIR      37  27  65 N17G24    30.12R
$$
MNZ029>031-032-039>041-046>048-054>057-064-180700-
   West Central Minnesota

CITY           SKY/WX    TMP DP  RH WIND       PRES   REMARKS
FERGUS FALLS   FAIR      54  23  30 E9        30.09R
WHEATON        FAIR      45  27  49 CALM      30.09R
MORRIS         FAIR      45  21  39 N5        30.06R
ALEXANDRIA     FAIR      55  26  32 NE9       30.08S
ELBOW LAKE     FAIR      55  30  39 E9        30.06S
WADENA         FAIR      50  25  37 NE7       30.08S
GLENWOOD       FAIR      48  23  37 N9        30.07R
APPLETON       FAIR      46  27  46 CALM      30.05S
BENSON         FAIR      41  27  56 CALM      30.06S
ORTONVILLE     FAIR      46  23  39 CALM      30.05F
MADISON        FAIR      48  19  32 NW3       30.05F
WILLMAR        FAIR      45  28  53 CALM      30.07S
$$
MNZ033>034-036-042>043-049>051-058-059-180700-
   Central Minnesota

CITY           SKY/WX    TMP DP  RH WIND       PRES   REMARKS
ST CLOUD       FAIR      42  31  64 N7        30.05R
6HR MIN TEMP:  42; 6HR MAX TEMP:  70;

SAUK CENTRE    FAIR      48  31  51 N3        30.08R
PAYNESVILLE    FAIR      38  28  66 SW5       30.06S
AITKIN         FAIR      54  19  26 N7        30.07S
PINE RIVER     FAIR      50  28  43 N7        30.13S
BRAINERD       FAIR      53  26  35 NE12      30.08S
STAPLES        FAIR      52  23  32 NE5       30.09R
LONG PRAIRIE   FAIR      48  28  46 N5        30.08R
LITTLE FALLS   FAIR      54  27  35 CALM      30.07R
LITCHFIELD     FAIR      48  30  49 CALM      30.06R
BUFFALO        FAIR      46  30  54 CALM      30.05S
MAPLE LAKE     FAIR      43  32  66 CALM      30.05S
$$
MNZ037-044-045-052-053-180700-
   East Central Minnesota

CITY           SKY/WX    TMP DP  RH WIND       PRES   REMARKS
PRINCETON      FAIR      43  34  70 CALM      30.05R
MORA           FAIR      48  28  46 CALM      30.07R
CAMBRIDGE      FAIR      46  36  66 CALM      30.03R
RUSH CITY      FAIR      45  31  58 CALM      30.05R
MOOSE LAKE     FAIR      50  28  43 CALM      30.06R
HINCKLEY       FAIR      54  30  40 N10       30.06R
CLOQUET        FAIR      52  18  25 N5        30.09R
MCGREGOR       FAIR      52  27  37 N9        30.09S
$$
MNZ071>073-080-081-089-090-097-098-180700-
   Southwest Minnesota

CITY           SKY/WX    TMP DP  RH WIND       PRES   REMARKS
MONTEVIDEO     FAIR      50  27  40 CALM      30.06F
GRANITE FALLS  FAIR      46  20  35 CALM      30.07S
CANBY          FAIR      43  27  52 SW3       30.07S
MARSHALL       FAIR      45  18  33 W3        30.06S
REDWOOD FALLS  FAIR      57  20  23 CALM      30.05S
OLIVIA         FAIR      45  21  39 CALM      30.05S
PIPESTONE      FAIR      52  18  25 CALM      30.07R
WINDOM         FAIR      50  25  37 N5        30.06S
WORTHINGTON    FAIR      48  25  40 N7        30.07S
JACKSON        FAIR      52  28  40 N8        30.07S
TRACY          FAIR      49  22  34 CALM      30.07R
SLAYTON        FAIR      48  22  36 CALM      30.07F
$$
MNZ065>067-074>077-082>085-091>093-180700-
   South Central Minnesota

CITY           SKY/WX    TMP DP  RH WIND       PRES   REMARKS
MANKATO        FAIR      55  28  35 N3        30.05S
NEW ULM        FAIR      57  21  24 CALM      30.05S
ST JAMES       FAIR      52  28  40 CALM      30.06S
FAIRMONT       FAIR      54  28  37 N7        30.05S
GLENCOE        FAIR      51  33  49 CALM      30.04S
FARIBAULT      FAIR      46  37  71 CALM      30.06R
OWATONNA       FAIR      48  36  61 CALM      30.05R
ALBERT LEA     FAIR      54  41  62 CALM      30.05S
$$
MNZ078>079-086>088-094>096-180700-
   Southeast Minnesota

CITY           SKY/WX    TMP DP  RH WIND       PRES   REMARKS
ROCHESTER      FAIR      56  37  49 NE5       30.07R
6HR MIN TEMP:  55; 6HR MAX TEMP:  71;

RED WING       FAIR      46  36  66 CALM      30.03S
STANTON        FAIR      44  37  75 S3        30.03S
DODGE CENTER   FAIR      57  36  44 NE3       30.06R
WINONA         FAIR      54  45  71 CALM      30.04R
AUSTIN         FAIR      52  45  76 NE3       30.05R
PRESTON        FAIR      59  40  50 N3        30.05S
$$
ABBREVIATIONS USED IN REMARKS
   TC - TEMPERATURES IN CELSIUS
  WCI - WIND CHILL INDEX
   HX - HEAT INDEX
  VSB - VISIBILITY
$$



USA.gov is the U.S. government's official web portal to all federal, state and local government web resources and services.